User: anonymous   Login
Location: Camp at the Woods
(43.2055°N, 93.0905°W)
Time: 21:43:27
(UTC+00:00)
Language:

Helios 1B rocket - Orbit

View from above orbital plane
View from above orbital plane
View from above satellite
View from above satellite

Ground track
Ground track

The orbit data is extracted from the following two-line orbital elements,

1 25979U 99064C   24103.93084320  .00008108  00000-0  54116-3 0  9996
2 25979  98.2468 115.2232 0005292 308.9330  51.1424 15.07317245323078
Epoch (UTC): 12 April 2024 22:20:24
Eccentricity: 0.0005292
inclination: 98.2468°
perigee height: 541 km
apogee height: 548 km
right ascension of ascending node: 115.2232°
argument of perigee: 308.9330°
revolutions per day: 15.07317245
mean anomaly at epoch: 51.1424°
orbit number at epoch: 32307

The dashed part of the orbit path shows where the satellite is in the earth's shadow,  

DLR